Regional Weather Roundup
Issued by NWS

Home | Current Version | Previous Version | Text Only | Print | Product List | Glossary On
Versions: 1 2 3 4 5 6 7 8 9 10 11 12 13 14 15 16 17 18 19 20 21 22 23 24 25 26 27 28 29 30 31 32 33 34 35 36 37 38 39 40 41 42 43 44 45 46 47 48 49 50
000
ASUS45 KABQ 172110
RWRNM
NEW MEXICO REGIONAL WEATHER ROUNDUP
NATIONAL WEATHER SERVICE ALBUQUERQUE NM
200 PM MST TUE JAN 17 2017

NOTE: "FAIR" MEANS FEW OR NO CLOUDS BELOW 12,000 FEET AGL WITH NO
       SIGNIFICANT WEATHER OR OBSTRUCTIONS TO VISION.

      THIS PRODUCT IS RELEASED AS TWO VERSIONS.  ONE VERSION NEAR
      THE TOP OF THE HOUR CONTAINING PRELIMINARY DATA FROM ALBUQUERQUE
      AND OTHER STATIONS.  A FINAL VERSION WITH ADDITIONAL DATA IS
      ISSUED ABOUT 10 MINUTES AFTER THE HOUR.

NMZ501-503-504-510>518-172200-
NORTHWEST PLATEAU/NORTHCENTRAL MOUNTAINS

CITY           SKY/WX    TMP DP  RH WIND       PRES   REMARKS
FARMINGTON     CLOUDY    42  34  73 CALM      30.12F
LOS ALAMOS     PTSUNNY   37  32  81 E3        30.12F
SANTA FE       CLOUDY    44  31  60 NW7       30.09F
TAOS           FAIR      37  25  60 CALM      30.12F
ANGEL FIRE     FAIR      32  24  73 SW8       30.10S WCI  25

$$
NMZ402-403-502-505>509-172200-
WESTCENTRAL MOUNTAINS/SOUTHWEST MOUNTAINS

CITY           SKY/WX    TMP DP  RH WIND       PRES   REMARKS
GALLUP         PTSUNNY   42  35  76 N7        30.10F
GRANTS         CLOUDY    40  32  71 S5        30.13F
SILVER CITY    CLOUDY    46  34  61 W5        30.08S

$$
NMZ407-409-411-412-172200-
SOUTHERN DESERTS

CITY           SKY/WX    TMP DP  RH WIND       PRES   REMARKS
DEMING         CLOUDY    51  37  58 E8        30.06S
LAS CRUCES     CLOUDY    50  37  61 CALM      30.08S
HOLLOMAN AFB   CLOUDY    50  40  67 SE3       30.09F
ALAMOGORDO     LGT RAIN  48  41  76 SW3       30.07F
T OR C         CLOUDY    49  36  61 CALM      30.07F

$$
NMZ519>523-172200-
CENTRAL VALLEYS/CENTRAL HIGHLANDS

CITY           SKY/WX    TMP DP  RH WIND       PRES   REMARKS
ALBUQUERQUE    PTSUNNY   48  35  60 W9        30.09F
DOUBLE EAGLE   PTSUNNY   45  36  70 SW5       30.10F
MORIARTY ARPT  FAIR      39  31  72 CALM      30.11F
CLINES CORNERS NOT AVBL
BELEN          PTSUNNY   48  35  62 W5        30.10F
SOCORRO        FAIR      49  36  61 N7        30.09S

$$
NMZ524>526-539-540-172200-
SOUTHCENTRAL MOUNTAINS

CITY           SKY/WX    TMP DP  RH WIND       PRES   REMARKS
RUIDOSO        CLOUDY    36  32  87 CALM      30.12S

$$
NMZ527>531-172200-
NORTHEAST HIGHLANDS/NORTHEAST PLAINS

CITY           SKY/WX    TMP DP  RH WIND       PRES   REMARKS
LAS VEGAS      FAIR      37  32  82 S14       30.06F WCI  28
RATON          FAIR      33  27  78 S6        30.06F WCI  28
CLAYTON        FAIR      45  38  76 SW14G23   30.04F

$$
NMZ532>537-172200-
EASTCENTRAL PLAINS

CITY           SKY/WX    TMP DP  RH WIND       PRES   REMARKS
TUCUMCARI      FAIR      52  35  52 W9        30.05F
CANNON AFB     FAIR      52  38  60 NW8       30.06F
CLOVIS AIRPORT FAIR      52  36  54 W8        30.06F

$$
NMZ028-029-538-172200-
SOUTHEAST PLAINS

CITY           SKY/WX    TMP DP  RH WIND       PRES   REMARKS
ROSWELL        CLOUDY    51  33  50 NW3       30.07F
ARTESIA        CLOUDY    48  37  66 VRB5      30.09F
CARLSBAD       LGT RAIN  46  37  71 VRB3      30.08F
HOBBS          CLOUDY    50  39  66 MISG      30.08F


$$



USA.gov is the U.S. government's official web portal to all federal, state and local government web resources and services.